TimeCST,TemperatureF,Dew PointF,Humidity,Sea Level PressureIn,VisibilityMPH,Wind Direction,Wind SpeedMPH,Gust SpeedMPH,PrecipitationIn,Events,Conditions,WindDirDegrees,DateUTC
12:54 AM,44.1,33.1,65,30.19,10.0,SE,8.1,-,N/A,,Mostly Cloudy,130,2013-03-09 06:54:00
1:54 AM,44.1,32.0,63,30.17,10.0,ESE,10.4,-,0.00,,Scattered Clouds,120,2013-03-09 07:54:00
2:54 AM,43.0,32.0,65,30.13,10.0,ESE,9.2,-,N/A,,Clear,120,2013-03-09 08:54:00
3:54 AM,42.1,32.0,67,30.13,10.0,ESE,9.2,-,N/A,,Scattered Clouds,110,2013-03-09 09:54:00
4:54 AM,42.1,33.1,70,30.13,10.0,East,6.9,-,N/A,,Overcast,100,2013-03-09 10:54:00
5:54 AM,41.0,34.0,76,30.13,10.0,East,4.6,-,0.00,Rain,Light Rain,100,2013-03-09 11:54:00
6:54 AM,42.1,35.1,76,30.13,8.0,ESE,9.2,-,0.07,Rain,Light Rain,120,2013-03-09 12:54:00
7:54 AM,39.9,37.0,89,30.14,5.0,ESE,8.1,-,0.06,Rain,Light Rain,110,2013-03-09 13:54:00
8:54 AM,39.9,37.0,89,30.12,4.0,East,8.1,-,0.04,Rain,Light Rain,100,2013-03-09 14:54:00
9:54 AM,42.1,37.0,82,30.09,6.0,SE,11.5,-,0.09,Rain,Light Rain,140,2013-03-09 15:54:00
10:54 AM,42.1,37.0,82,30.05,7.0,ESE,13.8,-,0.02,Rain,Light Rain,120,2013-03-09 16:54:00
11:54 AM,46.0,41.0,83,30.01,9.0,ESE,13.8,-,0.00,,Mostly Cloudy,120,2013-03-09 17:54:00
12:54 PM,52.0,44.1,74,29.96,10.0,ESE,10.4,-,N/A,,Clear,110,2013-03-09 18:54:00
1:54 PM,57.9,41.0,53,29.91,10.0,SSE,18.4,-,N/A,,Clear,160,2013-03-09 19:54:00
2:54 PM,60.1,43.0,53,29.85,10.0,SE,17.3,-,N/A,,Clear,140,2013-03-09 20:54:00
3:54 PM,62.1,42.1,48,29.83,10.0,SE,17.3,-,N/A,,Clear,130,2013-03-09 21:54:00
4:54 PM,62.1,44.1,52,29.81,10.0,SE,11.5,-,N/A,,Clear,130,2013-03-09 22:54:00
5:54 PM,61.0,41.0,48,29.81,10.0,SSE,18.4,-,N/A,,Clear,150,2013-03-09 23:54:00
6:54 PM,59.0,42.1,53,29.81,10.0,SSE,16.1,-,N/A,,Partly Cloudy,150,2013-03-10 00:54:00
7:54 PM,57.9,39.9,51,29.81,10.0,SE,11.5,-,N/A,,Mostly Cloudy,140,2013-03-10 01:54:00
8:54 PM,57.9,37.9,47,29.80,10.0,SSE,16.1,-,N/A,,Clear,160,2013-03-10 02:54:00
9:54 PM,57.9,37.9,47,29.81,10.0,South,18.4,24.2,N/A,,Scattered Clouds,170,2013-03-10 03:54:00
10:54 PM,59.0,37.0,44,29.80,10.0,South,16.1,-,N/A,,Overcast,170,2013-03-10 04:54:00
11:54 PM,55.9,42.1,60,29.79,8.0,South,10.4,-,0.01,Rain,Light Rain,170,2013-03-10 05:54:00